Terminal Aerodrome Forecast
Issued by NWS

Home | Current Version | Previous Version | Text Only | Print | Product List | Glossary On
Versions: 1 2 3 4 5 6 7 8 9 10 11 12 13 14 15 16 17 18 19 20 21 22 23
000
FTUS43 KDLH 061100
TAFHYR
TAF
KHYR 061140Z 0612/0712 19009KT P6SM BKN080 WS015/24035KT
     FM061400 19006KT P6SM BKN080
     FM061700 24007KT P6SM SCT030
     FM070600 20004KT P6SM SCT020 BKN040
      TEMPO 0707/0711 4SM -SN BKN020=

USA.gov is the U.S. government's official web portal to all federal, state and local government web resources and services.